KD8BMB Weather Reports


time (UTC)temp
C
wind
direction
speed
KPH
gust
KPH
rain 1hr
cm
rain 24hr
cm
rain mn
cm
humidity
%
barometer
mb
20260504050503 10 306 0.0 0.0 0.00 0.00 0.00 73 1006.5
20260504050000 10 256 3.2 3.2 0.00 0.00 0.00 72 1006.5
20260504045455 10 327 0.0 1.6 0.00 0.00 0.00 72 1006.6
20260504044952 10 133 3.2 8.0 0.00 0.00 0.00 72 1006.7
20260504044449 10 218 1.6 3.2 0.00 0.00 0.00 73 1006.6
20260504043946 10 212 4.8 4.8 0.00 0.00 0.00 72 1006.5
20260504043443 10 184 1.6 1.6 0.00 0.00 0.00 73 1006.3
20260504042941 10 201 3.2 4.8 0.00 0.00 0.00 72 1006.5
20260504042437 10 86 1.6 4.8 0.00 0.00 0.00 71 1006.4
20260504041934 10 268 4.8 8.0 0.00 0.00 0.00 72 1006.4
20260504041430 10 132 8.0 11.3 0.00 0.00 0.00 72 1006.5
20260504040926 10 216 3.2 3.2 0.00 0.00 0.00 72 1006.6
20260504040424 10 240 6.4 14.5 0.00 0.00 0.00 72 1006.7
20260504035920 10 213 0.0 1.6 0.00 0.00 0.00 72 1006.6
20260504035418 10 88 1.6 1.6 0.00 0.00 0.00 71 1006.8
20260504034914 10 115 4.8 4.8 0.00 0.00 0.00 72 1006.9
20260504034412 10 180 4.8 4.8 0.00 0.00 0.00 72 1007.0
20260504033909 11 236 4.8 4.8 0.00 0.00 0.00 71 1006.8
20260504033406 10 181 6.4 9.7 0.00 0.00 0.00 71 1007.0
20260504032902 10 207 1.6 3.2 0.00 0.00 0.00 71 1006.9
20260504032359 10 202 1.6 3.2 0.00 0.00 0.00 70 1006.8
20260504031856 11 187 0.0 0.0 0.00 0.00 0.00 70 1007.0
20260504031353 11 184 1.6 4.8 0.00 0.00 0.00 70 1007.0
20260504030849 11 61 1.6 1.6 0.00 0.00 0.00 70 1007.1
20260504030347 11 193 6.4 8.0 0.00 0.00 0.00 69 1007.3
20260504025843 11 248 1.6 3.2 0.00 0.00 0.00 70 1007.2
20260504025340 11 128 3.2 4.8 0.00 0.00 0.00 70 1007.1
20260504024837 11 234 1.6 1.6 0.00 0.00 0.00 70 1007.1
20260504024333 11 182 3.2 3.2 0.00 0.00 0.00 70 1007.4
20260504023830 11 265 1.6 1.6 0.00 0.00 0.00 69 1007.1
20260504023327 11 217 3.2 4.8 0.00 0.00 0.00 68 1007.2
20260504022822 11 234 3.2 3.2 0.00 0.00 0.00 69 1007.3
20260504022320 11 317 3.2 3.2 0.00 0.00 0.00 69 1007.3
20260504021816 11 147 1.6 3.2 0.00 0.00 0.00 68 1007.6
20260504021314 11 265 0.0 0.0 0.00 0.00 0.00 68 1007.5
20260504020810 11 180 11.3 12.9 0.00 0.00 0.00 68 1007.4
20260504020308 11 201 3.2 3.2 0.00 0.00 0.00 68 1007.4
20260504015803 11 273 3.2 4.8 0.00 0.00 0.00 67 1007.4
20260504015300 11 183 1.6 3.2 0.00 0.00 0.00 67 1007.6
20260504014755 11 267 3.2 3.2 0.00 0.00 0.00 66 1007.3
20260504014252 11 333 6.4 14.5 0.00 0.00 0.00 66 1007.5
20260504013749 11 244 1.6 3.2 0.00 0.00 0.00 66 1007.1
20260504013247 11 265 11.3 12.9 0.00 0.00 0.00 65 1007.3
20260504012743 12 309 0.0 3.2 0.00 0.00 0.00 65 1007.5
20260504012241 12 281 0.0 1.6 0.00 0.00 0.00 66 1007.4
20260504011738 12 202 4.8 8.0 0.00 0.00 0.00 65 1007.3
20260504011235 12 255 4.8 8.0 0.00 0.00 0.00 65 1007.5
20260504010731 12 233 12.9 17.7 0.00 0.00 0.00 64 1007.4
20260504010226 12 200 6.4 8.0 0.00 0.00 0.00 64 1007.6
20260504005723 12 291 6.4 8.0 0.00 0.00 0.00 64 1007.5
20260504005220 12 278 4.8 8.0 0.00 0.00 0.00 64 1007.4
20260504004718 12 211 8.0 12.9 0.00 0.00 0.00 64 1007.5
20260504004215 12 267 6.4 9.7 0.00 0.00 0.00 64 1007.5
20260504003712 12 287 11.3 14.5 0.00 0.00 0.00 64 1007.5
20260504003208 12 54 1.6 3.2 0.00 0.00 0.00 64 1007.6
20260504002705 12 264 3.2 8.0 0.00 0.00 0.00 63 1007.6
20260504002203 12 257 8.0 9.7 0.00 0.00 0.00 62 1007.6
20260504001701 12 267 8.0 14.5 0.00 0.00 0.00 61 1007.6
20260504001157 13 214 3.2 4.8 0.00 0.00 0.00 60 1007.5
20260504000654 13 261 4.8 8.0 0.00 0.00 0.00 59 1007.6
20260504000151 13 197 16.1 20.9 0.00 0.00 0.00 58 1007.6
20260503235649 13 153 4.8 8.0 0.00 0.00 0.00 58 1007.5
20260503235146 14 228 11.3 12.9 0.00 0.00 0.00 57 1007.3
20260503234644 14 306 8.0 9.7 0.00 0.00 0.00 56 1007.5
20260503234142 14 228 14.5 24.1 0.00 0.00 0.00 56 1007.4
20260503233638 14 194 6.4 9.7 0.00 0.00 0.00 55 1007.3
20260503233134 14 172 4.8 4.8 0.00 0.00 0.00 55 1007.3
20260503232631 15 291 8.0 9.7 0.00 0.00 0.00 54 1007.2
20260503232129 15 194 11.3 14.5 0.00 0.00 0.00 53 1007.4
20260503231627 15 240 6.4 9.7 0.00 0.00 0.00 53 1007.4
20260503231123 15 234 12.9 20.9 0.00 0.00 0.00 53 1007.4
20260503230620 15 200 1.6 4.8 0.00 0.00 0.00 54 1007.4
20260503230117 15 215 6.4 9.7 0.00 0.00 0.00 54 1007.5
20260503225614 15 308 6.4 8.0 0.00 0.00 0.00 55 1007.6
20260503225114 15 249 3.2 4.8 0.00 0.00 0.00 55 1007.3
20260503224611 15 288 4.8 4.8 0.00 0.00 0.00 53 1007.5
20260503224109 15 211 4.8 8.0 0.00 0.00 0.00 52 1007.4
20260503223607 15 265 6.4 8.0 0.00 0.00 0.00 51 1007.6
20260503223103 15 323 14.5 24.1 0.00 0.00 0.00 50 1007.6
20260503222601 15 292 9.7 14.5 0.00 0.00 0.00 50 1007.7
20260503222058 15 289 12.9 16.1 0.00 0.00 0.00 49 1007.7
20260503221556 15 273 16.1 24.1 0.00 0.00 0.00 48 1007.8
20260503221053 15 223 4.8 4.8 0.00 0.00 0.00 48 1007.6
20260503220549 16 246 9.7 12.9 0.00 0.00 0.00 47 1007.6
20260503220047 16 247 11.3 14.5 0.00 0.00 0.00 47 1007.9
20260503215544 16 268 8.0 11.3 0.00 0.00 0.00 48 1007.7
20260503215040 16 226 4.8 8.0 0.00 0.00 0.00 48 1007.8
20260503214539 16 210 9.7 12.9 0.00 0.00 0.00 48 1007.6
20260503214035 16 262 8.0 9.7 0.00 0.00 0.00 47 1007.6
20260503213533 16 220 1.6 1.6 0.00 0.00 0.00 47 1007.4
20260503213030 16 238 11.3 12.9 0.00 0.00 0.00 47 1007.4
20260503212527 16 119 6.4 8.0 0.00 0.00 0.00 47 1007.4
20260503212025 16 259 17.7 22.5 0.00 0.00 0.00 45 1007.7
20260503211522 17 229 11.3 14.5 0.00 0.00 0.00 46 1007.6
20260503211017 17 243 8.0 12.9 0.00 0.00 0.00 45 1007.3
20260503210514 17 225 6.4 9.7 0.00 0.00 0.00 45 1007.7
20260503210010 17 185 6.4 9.7 0.00 0.00 0.00 46 1007.4
20260503205506 16 182 11.3 14.5 0.00 0.00 0.00 45 1007.7
20260503205003 16 231 11.3 14.5 0.00 0.00 0.00 46 1007.7
20260503204500 16 194 14.5 24.1 0.00 0.00 0.00 45 1007.7
20260503203956 16 263 17.7 24.1 0.00 0.00 0.00 44 1007.8
20260503203454 16 253 9.7 11.3 0.00 0.00 0.00 45 1007.6
20260503202950 16 215 12.9 20.9 0.00 0.00 0.00 45 1007.9
20260503202449 16 200 4.8 4.8 0.00 0.00 0.00 46 1007.7
20260503201947 16 260 14.5 17.7 0.00 0.00 0.00 45 1007.8
20260503201444 16 244 4.8 9.7 0.00 0.00 0.00 47 1008.0
20260503200942 16 238 12.9 14.5 0.00 0.00 0.00 45 1008.1
20260503200438 16 231 16.1 24.1 0.00 0.00 0.00 47 1008.0
20260503195935 16 192 3.2 3.2 0.00 0.00 0.00 48 1008.4
20260503195432 16 208 6.4 11.3 0.00 0.00 0.00 46 1008.0
20260503194928 16 185 6.4 8.0 0.00 0.00 0.00 48 1008.5
20260503194425 16 217 9.7 17.7 0.00 0.00 0.00 47 1008.5
20260503193921 16 248 14.5 17.7 0.00 0.00 0.00 46 1008.4
20260503193416 16 252 9.7 14.5 0.00 0.00 0.00 47 1008.6
20260503192912 16 268 17.7 22.5 0.00 0.00 0.00 47 1008.5
20260503192409 16 198 8.0 11.3 0.00 0.00 0.00 47 1008.7
20260503191904 17 276 12.9 16.1 0.00 0.00 0.00 46 1008.8
20260503191403 17 222 9.7 12.9 0.00 0.00 0.00 47 1008.8
20260503190858 16 208 8.0 11.3 0.00 0.00 0.00 48 1008.6
20260503190356 16 243 16.1 24.1 0.00 0.00 0.00 49 1009.0
20260503185852 16 241 17.7 20.9 0.00 0.00 0.00 50 1009.0
20260503185349 16 172 9.7 14.5 0.00 0.00 0.00 50 1009.1
20260503184848 15 322 8.0 14.5 0.00 0.00 0.00 51 1009.1
20260503184345 16 164 14.5 16.1 0.00 0.00 0.00 50 1009.2
20260503183840 16 242 8.0 12.9 0.00 0.00 0.00 50 1009.3
20260503183338 16 277 12.9 17.7 0.00 0.00 0.00 49 1009.1
20260503182835 17 228 8.0 9.7 0.00 0.00 0.00 47 1009.4
20260503182334 16 233 9.7 14.5 0.00 0.00 0.00 47 1009.3
20260503181831 16 258 24.1 37.0 0.00 0.00 0.00 48 1009.4
20260503181328 16 263 20.9 29.0 0.00 0.00 0.00 47 1009.5
20260503180825 16 276 8.0 9.7 0.00 0.00 0.00 46 1009.6
20260503180323 16 244 14.5 17.7 0.00 0.00 0.00 45 1009.7
20260503175819 16 189 8.0 14.5 0.00 0.00 0.00 46 1009.6
20260503175317 16 284 9.7 12.9 0.00 0.00 0.00 46 1010.0
20260503174812 15 233 3.2 3.2 0.00 0.00 0.00 49 1010.0
20260503174311 15 282 8.0 11.3 0.00 0.00 0.00 48 1009.8
20260503173806 15 232 11.3 14.5 0.00 0.00 0.00 48 1010.0
20260503173302 15 224 11.3 12.9 0.00 0.00 0.00 47 1010.1
20260503172759 15 245 16.1 17.7 0.00 0.00 0.00 47 1010.1
20260503172256 15 258 9.7 14.5 0.00 0.00 0.00 48 1010.2
20260503171752 15 285 4.8 4.8 0.00 0.00 0.00 47 1010.3
20260503171249 15 205 1.6 4.8 0.00 0.00 0.00 48 1010.5
20260503170747 15 247 8.0 11.3 0.00 0.00 0.00 48 1010.8
20260503170243 15 272 8.0 12.9 0.00 0.00 0.00 48 1010.7
20260503160205 13 243 6.4 9.7 0.00 0.00 0.00 51 1011.4
20260503150636 11 233 4.8 4.8 0.00 0.00 0.00 53 1011.9
20260503150131 11 268 6.4 11.3 0.00 0.00 0.00 52 1011.8
20260503131025 10 271 6.4 9.7 0.00 0.00 0.00 57 1012.2
20260503130522 10 275 6.4 8.0 0.00 0.00 0.00 58 1012.5
20260503110413 3 264 3.2 3.2 0.00 0.00 0.00 67 1012.5
20260503090258 1 246 0.0 0.0 0.00 0.00 0.00 76 1013.7
20260503081226 0 316 0.0 0.0 0.00 0.00 0.00 80 1014.0
20260503080721 0 310 0.0 0.0 0.00 0.00 0.00 80 1014.0
20260503080219 0 310 0.0 0.0 0.00 0.00 0.00 79 1014.0
20260503072655 1 310 0.0 0.0 0.00 0.00 0.00 75 1014.1
20260503072152 1 282 0.0 0.0 0.00 0.00 0.00 75 1014.0
20260503071649 1 285 0.0 0.0 0.00 0.00 0.00 75 1014.1
20260503071145 2 294 0.0 0.0 0.00 0.00 0.00 75 1014.2
20260503070642 2 295 0.0 0.0 0.00 0.00 0.00 74 1014.4
20260503070140 2 309 0.0 0.0 0.00 0.00 0.00 73 1014.3